TimeEST,TemperatureF,Dew PointF,Humidity,Sea Level PressureIn,VisibilityMPH,Wind Direction,Wind SpeedMPH,Gust SpeedMPH,PrecipitationIn,Events,Conditions,WindDirDegrees,DateUTC
12:52 AM,14.0,-2.9,47,30.25,10.0,NW,6.9,-,N/A,,Clear,320,2013-02-10 05:52:00
1:52 AM,12.0,-2.9,51,30.26,10.0,NW,3.5,-,N/A,,Clear,320,2013-02-10 06:52:00
2:52 AM,9.0,-4.0,56,30.26,10.0,NW,5.8,-,N/A,,Clear,320,2013-02-10 07:52:00
3:52 AM,12.0,-5.1,46,30.27,10.0,NW,9.2,-,N/A,,Clear,310,2013-02-10 08:52:00
4:52 AM,10.9,-6.0,47,30.30,10.0,NW,10.4,-,N/A,,Clear,310,2013-02-10 09:52:00
5:52 AM,10.0,-6.0,48,30.32,10.0,NW,6.9,-,N/A,,Clear,320,2013-02-10 10:52:00
6:52 AM,10.9,-5.1,49,30.34,10.0,NW,4.6,-,N/A,,Clear,320,2013-02-10 11:52:00
7:52 AM,18.0,-4.0,38,30.37,10.0,WNW,12.7,-,N/A,,Clear,300,2013-02-10 12:52:00
8:52 AM,21.9,-2.0,35,30.39,10.0,NW,3.5,-,N/A,,Clear,320,2013-02-10 13:52:00
9:52 AM,26.1,-0.0,32,30.40,10.0,West,10.4,-,N/A,,Clear,280,2013-02-10 14:52:00
10:52 AM,30.0,1.0,29,30.40,10.0,WNW,11.5,-,N/A,,Clear,290,2013-02-10 15:52:00
11:52 AM,32.0,7.0,35,30.40,1.0,WNW,9.2,-,N/A,,Haze,300,2013-02-10 16:52:00
12:00 PM,32.0,3.2,30,30.38,0.8,West,12.7,-,N/A,,Haze,280,2013-02-10 17:00:00
12:02 PM,32.0,3.2,30,30.38,5.0,WNW,12.7,-,N/A,,Haze,290,2013-02-10 17:02:00
12:52 PM,34.0,5.0,30,30.36,10.0,WNW,6.9,-,N/A,,Clear,290,2013-02-10 17:52:00
1:52 PM,37.0,3.0,24,30.34,10.0,Calm,Calm,-,N/A,,Clear,0,2013-02-10 18:52:00
2:52 PM,39.0,3.9,23,30.35,10.0,West,8.1,-,N/A,,Clear,280,2013-02-10 19:52:00
3:52 PM,37.9,3.9,24,30.38,10.0,West,6.9,-,N/A,,Clear,260,2013-02-10 20:52:00
4:52 PM,34.0,1.0,25,30.36,10.0,West,5.8,-,N/A,,Clear,260,2013-02-10 21:52:00
5:52 PM,25.0,10.0,53,30.37,10.0,Calm,Calm,-,N/A,,Clear,0,2013-02-10 22:52:00
6:52 PM,21.0,10.0,63,30.38,10.0,NNW,3.5,-,N/A,,Clear,340,2013-02-10 23:52:00
7:52 PM,15.1,8.1,74,30.38,10.0,Calm,Calm,-,N/A,,Clear,0,2013-02-11 00:52:00
8:52 PM,10.9,5.0,77,30.38,10.0,Calm,Calm,-,N/A,,Clear,0,2013-02-11 01:52:00
9:52 PM,12.9,7.0,77,30.37,10.0,Calm,Calm,-,N/A,,Clear,0,2013-02-11 02:52:00
10:52 PM,9.0,5.0,84,30.36,10.0,Calm,Calm,-,N/A,,Clear,0,2013-02-11 03:52:00
11:52 PM,10.9,6.1,81,30.36,10.0,Calm,Calm,-,N/A,,Mostly Cloudy,0,2013-02-11 04:52:00